レモン彗星

C/2021 T4 ( Lemmon )

English version
Home page
Updated on March 23, 2025

---------------------------------------------------------------------

・ プロフィール

発見日 2021年10月7日
発見光度 20.2等
発見者 Mount Lemmon

・ 写真集

・ 軌道要素

Epoch 2025 May 5.0 TT = JDT 2460800.5
T 2023 July 31.52452 TT                                 Pike
q   1.4816685            (2000.0)            P               Q
z  +0.0001818      Peri.  329.77629     +0.28346622     -0.90334366
 +/-0.0000002      Node   257.89000     -0.80069067     -0.40767601
e   0.9997306      Incl.  160.77841     -0.52777017     +0.13330607
From 2196 observations 2021 Aug. 7-2025 Feb. 27, mean residual 0".9.

・ 星図

・ 光度変化

        m1 = 7.5 + 5 logΔ + 10.0 log r           [   ,  0]  (              〜2023年 7月31日)
        m1 = 6.8 + 5 logΔ + 15.0 log r           [  0,215]  (2023年 7月31日〜2024年 3月 2日)
        m1 = 7.2 + 5 logΔ + 10.0 log r(t + 200)  [215,   ]  (2024年 3月 2日〜              )

---------------------------------------------------------------------

軌道要素はM.P.E.C. 2025-D254に掲載されたものです。
星図はステラナビゲータ Ver.10 (アストロアーツ) で作成したものです。
光度グラフはComet for Windowsで作成したものです。

---------------------------------------------------------------------

Copyright(C) Seiichi Yoshida (comet@aerith.net). All rights reserved.